This is the latest recevied weather packets stored in our database for station/object N4TLC. If no packets are shown the sender has not sent any weather packets the latest 10 day(s).
| Time | Temp. | Humidity | Pressure | Rain* | Wind** | Luminosity | Snow |
|---|---|---|---|---|---|---|---|
| 1777537664 | 15° C | 72% | 1011.5 hPa | 0 mm | - | 0 W/m² | - |
| 1777537360 | 15° C | 71% | 1011.4 hPa | 0 mm | - | 0 W/m² | - |
| 1777537057 | 15.56° C | 70% | 1011.5 hPa | 0 mm | - | 0 W/m² | - |
| 1777536754 | 15.56° C | 70% | 1011.3 hPa | 0 mm | - | 0 W/m² | - |
| 1777536451 | 15.56° C | 70% | 1011.4 hPa | 0 mm | - | 0 W/m² | - |
| 1777536148 | 15.56° C | 72% | 1011.4 hPa | 0 mm | - | 0 W/m² | - |
| 1777535843 | 15.56° C | 72% | 1011.2 hPa | 0 mm | - | 0 W/m² | - |
| 1777535540 | 15.56° C | 72% | 1011.2 hPa | 0 mm | - | 0 W/m² | - |
| 1777535237 | 15.56° C | 74% | 1011.2 hPa | 0 mm | - | 0 W/m² | - |
| 1777534934 | 15.56° C | 76% | 1010.9 hPa | 0 mm | - | 0 W/m² | - |
| 1777534630 | 15.56° C | 77% | 1010.9 hPa | 0 mm | - | 0 W/m² | - |
| 1777534328 | 15.56° C | 78% | 1010.7 hPa | 0 mm | - | 0 W/m² | - |
| 1777534025 | 15.56° C | 79% | 1010.8 hPa | 0 mm | - | 0 W/m² | - |
| 1777533723 | 15.56° C | 80% | 1010.9 hPa | 0 mm | - | 0 W/m² | - |
| 1777533418 | 16.11° C | 79% | 1011 hPa | 0 mm | - | 0 W/m² | - |
| 1777533114 | 16.11° C | 79% | 1010.9 hPa | 0 mm | - | 0 W/m² | - |
| 1777532812 | 16.11° C | 79% | 1010.9 hPa | 0 mm | - | 0 W/m² | - |
| 1777532508 | 16.11° C | 78% | 1011 hPa | 0 mm | - | 0 W/m² | - |
| 1777532205 | 16.67° C | 78% | 1010.9 hPa | 0 mm | - | 0 W/m² | - |
| 1777531901 | 16.67° C | 78% | 1010.8 hPa | 0 mm | - | 0 W/m² | - |
| 1777531597 | 16.11° C | 80% | 1011 hPa | 0 mm | - | 0 W/m² | - |
| 1777531295 | 16.11° C | 82% | 1010.9 hPa | 0 mm | - | 0 W/m² | - |
| 1777530992 | 16.11° C | 84% | 1011.2 hPa | 0 mm | - | 0 W/m² | - |
| 1777530690 | 15.56° C | 86% | 1011.1 hPa | 0 mm | - | 0 W/m² | - |
| 1777530387 | 15.56° C | 88% | 1011.1 hPa | 0 mm | - | 0 W/m² | - |
* Rain latest hour (hover to see other rain measurements)
** Current wind speed in m/s (hover to see current wind gust speed)